Satellite: DO-64
Catalog number: 32789
Epoch time:      10223.87481527
Element set:    0760
Inclination:      097.8983 deg
RA of node:       288.5337 deg
Eccentricity:    0.0016775
Arg of perigee:   101.9130 deg
Mean anomaly:     258.3964 deg
Mean motion:   14.82249335 rev/day
Decay rate:       6.49e-06 rev/day^2
Epoch rev:           12375
Checksum:              348

Satellite: CO-66
Catalog number: 32791
Epoch time:      10223.22902863
Element set:    0741
Inclination:      097.8925 deg
RA of node:       287.2283 deg
Eccentricity:    0.0017232
Arg of perigee:   103.3434 deg
Mean anomaly:     256.9670 deg
Mean motion:   14.81709581 rev/day
Decay rate:       4.92e-06 rev/day^2
Epoch rev:           12360
Checksum:              307

Satellite: RS-30
Catalog number: 32953
Epoch time:      10224.47181116
Element set:     946
Inclination:      082.5037 deg
RA of node:       354.6735 deg
Eccentricity:    0.0018392
Arg of perigee:   343.1343 deg
Mean anomaly:     016.9123 deg
Mean motion:   12.43007188 rev/day
Decay rate:        1.0e-07 rev/day^2
Epoch rev:           10073
Checksum:              263

Satellite: TACSAT-3
Catalog number: 35001
Epoch time:      10223.48319329
Element set:    0371
Inclination:      040.4548 deg
RA of node:       241.8410 deg
Eccentricity:    0.0020749
Arg of perigee:   056.5261 deg
Mean anomaly:     303.7534 deg
Mean motion:   15.42271497 rev/day
Decay rate:      4.734e-05 rev/day^2
Epoch rev:           06917
Checksum:              279

Satellite: PHARMSAT
Catalog number: 35002
Epoch time:      10223.41895536
Element set:    0340
Inclination:      040.4685 deg
RA of node:       240.0411 deg
Eccentricity:    0.0023287
Arg of perigee:   059.6564 deg
Mean anomaly:     300.6551 deg
Mean motion:   15.42748425 rev/day
Decay rate:      4.059e-05 rev/day^2
Epoch rev:           06918
Checksum:              274

Satellite: HAWKSAT1
Catalog number: 35003
Epoch time:      10223.40311774
Element set:    0369
Inclination:      040.4604 deg
RA of node:       233.2284 deg
Eccentricity:    0.0020885
Arg of perigee:   077.7434 deg
Mean anomaly:     282.5719 deg
Mean motion:   15.46327500 rev/day
Decay rate:      9.246e-05 rev/day^2
Epoch rev:           06926
Checksum:              281

Satellite: CP6
Catalog number: 35004
Epoch time:      10223.43201366
Element set:     357
Inclination:      040.4609 deg
RA of node:       231.6757 deg
Eccentricity:    0.0019482
Arg of perigee:   084.2307 deg
Mean anomaly:     276.0729 deg
Mean motion:   15.47343120 rev/day
Decay rate:     1.1624e-04 rev/day^2
Epoch rev:            6927
Checksum:              276

Satellite: AEROCUB3
Catalog number: 35005
Epoch time:      10224.35753401
Element set:     407
Inclination:      040.4682 deg
RA of node:       220.4446 deg
Eccentricity:    0.0018057
Arg of perigee:   110.0933 deg
Mean anomaly:     250.1826 deg
Mean motion:   15.54961068 rev/day
Decay rate:     4.3345e-04 rev/day^2
Epoch rev:            6948
Checksum:              270

Satellite: CASTOR
Catalog number: 35694
Epoch time:      10224.44218752
Element set:     637
Inclination:      051.6228 deg
RA of node:       255.5901 deg
Eccentricity:    0.0005438
Arg of perigee:   007.4300 deg
Mean anomaly:     352.7329 deg
Mean motion:   16.25174980 rev/day
Decay rate:    6.96839e-03 rev/day^2
Epoch rev:            6012
Checksum:              300

Satellite: METEOR-M
Catalog number: 35865
Epoch time:      10224.57232722
Element set:     553
Inclination:      098.7537 deg
RA of node:       277.9558 deg
Eccentricity:    0.0001758
Arg of perigee:   186.2688 deg
Mean anomaly:     173.8464 deg
Mean motion:   14.21831220 rev/day
Decay rate:       1.76e-06 rev/day^2
Epoch rev:            4673
Checksum:              322

Satellite: RS-38
Catalog number: 35869
Epoch time:      10224.53770658
Element set:     567
Inclination:      098.7530 deg
RA of node:       277.9577 deg
Eccentricity:    0.0004134
Arg of perigee:   192.9379 deg
Mean anomaly:     167.1658 deg
Mean motion:   14.21986469 rev/day
Decay rate:       1.77e-06 rev/day^2
Epoch rev:            4673
Checksum:              367

/EX




More information about the Keps mailing list